COSMOS 2460 (732)

Last updated on June 24, 2019, 3:41 a.m. UTC

1 36402U 10007C   19174.69545381 -.00000063  00000-0  10000-3 0  9990
2 36402  65.7462  39.8705 0001726  52.0330 267.6475  2.13101460 72462
UTC
Height (km)
Latitude
Longitude
Inclination
Orbital Period
UTC large
Height (km)
Speed (km/s)
/
Latitude / Longitude
Inclination (degrees)
Orbital Period (minutes)
Azimuth
Elevation
Range (km)
Doppler Factor
iOS Compass Heading
iOS Angle

Next 30 passes for location: Hong Kong

Rise time Rise Azimuth (degrees) Set time Set Azimuth (degrees) Duration Max altitude (degrees)

No matching passes for this satellites